[[{"header":{"parameterUnit":"m.s-1","parameterCategory":1,"la1":30.2991,"la2":30.254,"lo1":-89.0895,"lo2":-89.0444,"dy":0.0017,"dx":0.0017,"nx":28,"ny":28,"refTime":"2025-04-25T09:00:00:Z","depth":0,"parameterNumber":2,"parameterNumberName":"U-component_of_WINDS"},"data":[0,0,0,0,0,0,0,0,0,0,0,0,0,0,0,0,0,0,0,0,0,0,0,0,0,0,0,0,0,0,0,0,0,0,0,0,0,0,0,0,0,0,0,0,0,0,0,0,0,0,0,0,0,0,0,0,0,0,-1.1003,-1.1001,0,-1.0894,-1.0893,-1.0892,-1.0818,-1.0817,-1.0817,-1.0816,-1.0706,-1.0704,-1.0702,0,0,0,0,0,0,0,0,0,0,0,0,0,-1.1148,-1.1146,-1.1003,-1.1001,-1.1,-1.0894,-1.0893,-1.0891,-1.0818,-1.0817,-1.0817,-1.0816,-1.0707,-1.0704,-1.0701,0,0,0,0,0,0,0,0,0,0,0,0,0,-1.1067,-1.1145,-1.1003,-1.0951,-1.0945,-1.0895,-1.0893,-1.0891,-1.0818,-1.0817,-1.0817,-1.0816,-1.0708,-1.0705,-1.0701,-1.0695,0,0,-1.069,-1.0688,0,0,0,0,0,0,0,0,-1.1072,-1.1062,-1.096,-1.0954,-1.0948,-1.0869,-1.0904,-1.0825,-1.0818,-1.0866,-1.0816,-1.0815,-1.0761,-1.0753,-1.0735,-1.069,-1.0685,-1.069,-1.0687,-1.0686,-1.0685,0,0,0,0,0,0,0,-1.1077,-1.1066,-1.096,-1.0958,-1.0951,-1.0933,-1.0921,-1.0889,-1.082,-1.0862,-1.0856,-1.0845,-1.0758,-1.0738,-1.0731,-1.0683,-1.069,-1.0686,-1.0684,-1.0683,-1.0628,-1.0629,0,0,0,0,0,0,-1.1091,-1.1071,-1.0963,-1.0957,-1.1009,-1.0931,-1.0917,-1.0895,-1.082,-1.0807,-1.0845,-1.0842,-1.0745,-1.0736,-1.0727,-1.0714,-1.0686,-1.0682,-1.068,-1.0627,-1.0628,-1.0629,0,0,0,0,0,0,-1.1094,-1.1082,-1.0968,-1.1012,-1.0996,-1.093,-1.0905,-1.0893,-1.0873,-1.0807,-1.0795,-1.0838,-1.0744,-1.0732,-1.0703,-1.071,-1.0681,-1.0677,-1.0626,-1.0628,-1.0629,-1.069,0,0,0,0,0,0,-1.1099,-1.1084,-1.108,-1.1013,-1.0994,-1.0945,-1.0905,-1.0892,-1.0867,-1.0861,-1.0797,-1.0785,-1.0742,-1.0709,-1.07,-1.0704,-1.0675,-1.0625,-1.0627,-1.0628,-1.0687,-1.0693,-1.0698,0,0,0,0,0,-1.1104,-1.1102,-1.108,-1.1068,-1.0988,-1.0946,-1.0935,-1.0885,-1.0868,-1.0864,-1.0822,-1.0787,-1.0711,-1.0707,-1.0696,-1.0699,-1.0625,-1.0627,-1.0628,-1.0684,-1.0691,-1.0698,0,0,0,0,0,0,-1.1172,-1.1092,-1.1067,-1.1043,-1.1001,-1.0933,-1.0926,-1.0894,-1.0857,-1.0853,-1.0794,-1.078,-1.0757,-1.0725,-1.0722,-1.0689,-1.0664,-1.0663,-1.071,-1.0717,-1.0722,-1.073,-1.0672,0,0,0,0,0,-1.1184,-1.1155,-1.1087,-1.1072,-1.1053,-1.0994,-1.0973,-1.0938,-1.0893,-1.0876,-1.0831,-1.0789,-1.0756,-1.0735,-1.07,-1.0682,-1.0667,-1.0679,-1.0685,-1.069,-1.069,-1.0678,-1.0683,-1.0634,-1.0634,-1.0634,0,0,-1.1208,-1.1161,-1.1147,-1.1085,-1.1049,-1.1021,-1.0979,-1.0952,-1.0931,-1.0872,-1.0841,-1.0807,-1.0757,-1.0733,-1.0721,-1.0706,-1.07,-1.0692,-1.0696,-1.0693,-1.068,-1.0685,-1.0689,-1.0635,-1.0635,-1.0635,0,0,-1.1238,-1.12,-1.1183,-1.1148,-1.1094,-1.1055,-1.1051,-1.0988,-1.0963,-1.0931,-1.0887,-1.0861,-1.0805,-1.077,-1.0746,-1.0765,-1.0732,-1.0756,-1.0784,-1.0773,-1.0777,-1.078,-1.0786,-1.0789,-1.0756,-1.0756,-1.0756,0,-1.1275,-1.1231,-1.1179,-1.1153,-1.1128,-1.1073,-1.1056,-1.1025,-1.0963,-1.0946,-1.0931,-1.086,-1.0822,-1.079,-1.0794,-1.0776,-1.077,-1.0762,-1.0781,-1.0783,-1.0785,-1.079,-1.0793,-1.0759,-1.0759,-1.0758,-1.0758,0,-1.1279,-1.125,-1.1243,-1.1184,-1.1157,-1.1136,-1.1081,-1.1061,-1.103,-1.0992,-1.0962,-1.0915,-1.0869,-1.086,-1.0828,-1.0823,-1.0816,-1.0792,-1.0765,-1.0794,-1.0798,-1.0799,-1.0764,-1.0762,-1.0762,-1.0761,0,0,-1.1347,-1.126,-1.1258,-1.1231,-1.1168,-1.1144,-1.1122,-1.1078,-1.1061,-1.1021,-1.1,-1.0955,-1.0932,-1.0904,-1.0869,-1.086,-1.0877,-1.0836,-1.0834,-1.0845,-1.0869,-1.0886,-1.0889,-1.0856,-1.0856,-1.0856,-1.0872,0,-1.1367,-1.1322,-1.1274,-1.1247,-1.1219,-1.1168,-1.1148,-1.1108,-1.1073,-1.1045,-1.1006,-1.0974,-1.0947,-1.093,-1.0919,-1.0878,-1.0881,-1.0876,-1.0836,-1.0835,-1.0849,-1.0891,-1.091,-1.0927,-1.0874,-1.0874,-1.0874,0,-1.1383,-1.1345,-1.1314,-1.1254,-1.1241,-1.1224,-1.118,-1.1153,-1.1107,-1.1083,-1.1052,-1.1015,-1.0989,-1.0967,-1.0931,-1.0928,-1.0909,-1.0887,-1.0886,-1.088,-1.0855,-1.0885,-1.0932,-1.0934,-1.0876,-1.0876,-1.0876,0,-1.1434,-1.1376,-1.1349,-1.1328,-1.1258,-1.1247,-1.1217,-1.117,-1.1147,-1.1109,-1.1094,-1.1054,-1.1032,-1.1002,-1.0955,-1.0943,-1.0924,-1.0897,-1.0902,-1.0904,-1.0899,-1.09,-1.0943,-1.089,-1.089,-1.0889,-1.0889,0,-1.146,-1.1444,-1.1371,-1.1355,-1.1335,-1.1282,-1.1264,-1.123,-1.1189,-1.1165,-1.112,-1.1099,-1.1039,-1.1012,-1.0975,-1.095,-1.0941,-1.092,-1.0911,-1.0924,-1.0926,-1.0909,-1.0906,-1.089,-1.089,-1.089,-1.089,0,-1.1514,-1.1465,-1.1433,-1.1369,-1.1353,-1.1341,-1.1287,-1.127,-1.1233,-1.1204,-1.1195,-1.1137,-1.1102,-1.1053,-1.1004,-1.0979,-1.096,-1.0945,-1.0975,-1.0969,-1.0976,-1.0976,-1.1008,-1.101,-1.0958,-1.0958,-1.0959,0,-1.1533,-1.1519,-1.1454,-1.1435,-1.1407,-1.1377,-1.1353,-1.1301,-1.1278,-1.1225,-1.1214,-1.1176,-1.1142,-1.109,-1.1043,-1.1006,-1.0989,-1.1003,-1.0983,-1.0996,-1.0988,-1.0989,-1.0987,-1.1007,-1.1008,-1.1009,-1.1009,0,-1.1572,-1.1549,-1.1516,-1.1474,-1.1447,-1.1412,-1.1375,-1.1363,-1.1303,-1.128,-1.1243,-1.1218,-1.1167,-1.113,-1.1086,-1.1056,-1.1023,-1.1017,-1.1015,-1.1028,-1.1045,-1.1035,-1.0987,-1.1015,-1.1015,-1.1014,-1.1014,-1.1014,-1.1608,-1.1593,-1.1545,-1.151,-1.1477,-1.1443,-1.1424,-1.1385,-1.1354,-1.1308,-1.128,-1.1245,-1.12,-1.1138,-1.111,-1.1082,-1.1069,-1.1067,-1.1067,-1.1067,-1.1071,-1.1051,-1.1074,-1.1074,-1.1074,-1.1074,-1.1073,0,-1.1644,-1.1611,-1.1579,-1.1529,-1.1501,-1.1473,-1.1431,-1.141,-1.138,-1.1341,-1.1309,-1.1268,-1.1232,-1.1184,-1.1144,-1.1131,-1.1115,-1.1123,-1.1122,-1.1116,-1.1086,-1.109,-1.1136,-1.1136,-1.1136,-1.1136,-1.1136,-1.1136,-1.1659,-1.1632,-1.1603,-1.156,-1.1527,-1.1492,-1.147,-1.144,-1.1408,-1.1364,-1.1334,-1.1303,-1.126,-1.1217,-1.1183,-1.117,-1.1157,-1.1169,-1.1151,-1.1124,-1.1118,-1.1113,-1.1116,-1.1167,-1.1167,-1.1183,-1.1183,-1.1184]},{"header":{"parameterUnit":"m.s-1","parameterCategory":1,"la1":30.2991,"la2":30.254,"lo1":-89.0895,"lo2":-89.0444,"dy":0.0017,"dx":0.0017,"nx":28,"ny":28,"refTime":"2025-04-25T09:00:00:Z","depth":0,"parameterNumber":3,"parameterNumberName":"V-component_of_WINDS"},"data":[0,0,0,0,0,0,0,0,0,0,0,0,0,0,0,0,0,0,0,0,0,0,0,0,0,0,0,0,0,0,0,0,0,0,0,0,0,0,0,0,0,0,0,0,0,0,0,0,0,0,0,0,0,0,0,0,0,0,2.1995,2.1995,0,2.2018,2.2018,2.2018,2.2014,2.2014,2.2013,2.2013,2.2036,2.2037,2.2038,0,0,0,0,0,0,0,0,0,0,0,0,0,2.1946,2.1947,2.1995,2.1995,2.1995,2.2018,2.2018,2.2018,2.2014,2.2014,2.2013,2.2013,2.2036,2.2037,2.2038,0,0,0,0,0,0,0,0,0,0,0,0,0,2.1968,2.1947,2.1995,2.1996,2.1996,2.2018,2.2018,2.2018,2.2014,2.2014,2.2013,2.2012,2.2035,2.2037,2.2038,2.206,0,0,2.2043,2.2044,0,0,0,0,0,0,0,0,2.1967,2.197,2.1995,2.1996,2.1996,2.2012,2.2009,2.2032,2.2014,2.2007,2.2013,2.2012,2.2029,2.2031,2.2036,2.2061,2.2062,2.2043,2.2044,2.2045,2.2045,0,0,0,0,0,0,0,2.1965,2.1969,2.2004,2.1996,2.1996,2.1995,2.1997,2.2014,2.2021,2.2008,2.2008,2.201,2.2029,2.2035,2.2037,2.2062,2.2043,2.2044,2.2045,2.2046,2.2105,2.2105,0,0,0,0,0,0,2.1963,2.1967,2.2003,2.2005,2.198,2.1996,2.1999,2.2008,2.2021,2.2022,2.2011,2.201,2.2033,2.2035,2.2038,2.2064,2.2045,2.2046,2.2047,2.2104,2.2105,2.2106,0,0,0,0,0,0,2.1962,2.1967,2.2002,2.1986,2.199,2.1998,2.2008,2.2009,2.2015,2.2023,2.2025,2.2016,2.2032,2.2036,2.2054,2.2064,2.2047,2.2048,2.2103,2.2104,2.2105,2.2116,0,0,0,0,0,0,2.1961,2.1966,2.1975,2.1986,2.1991,2.2019,2.2008,2.201,2.2017,2.2017,2.2028,2.203,2.2032,2.2052,2.2056,2.2066,2.2049,2.2102,2.2104,2.2105,2.2115,2.2117,2.2119,0,0,0,0,0,2.1959,2.1977,2.1976,2.198,2.2002,2.202,2.2022,2.2025,2.2018,2.2027,2.2032,2.2029,2.2062,2.2054,2.2058,2.2069,2.2102,2.2103,2.2105,2.2114,2.2117,2.2119,0,0,0,0,0,0,2.1968,2.1979,2.1977,2.1999,2.2008,2.2019,2.203,2.2028,2.2039,2.2038,2.204,2.2043,2.2062,2.2067,2.2058,2.209,2.2081,2.2084,2.2087,2.2089,2.2092,2.2091,2.2051,0,0,0,0,0,2.1972,2.1985,2.1994,2.2013,2.2018,2.2023,2.203,2.2031,2.2041,2.2045,2.2051,2.2061,2.2073,2.2081,2.2093,2.2115,2.2117,2.2124,2.2127,2.2128,2.2131,2.2142,2.2146,2.2111,2.2111,2.211,0,0,2.1982,2.1989,2.1998,2.2015,2.2022,2.2035,2.2026,2.2041,2.2051,2.2047,2.2065,2.207,2.208,2.2101,2.211,2.2106,2.2141,2.213,2.2132,2.2133,2.2144,2.2147,2.215,2.2112,2.2111,2.2111,0,0,2.2006,2.2013,2.2029,2.2036,2.2047,2.205,2.2054,2.2064,2.2067,2.2085,2.2082,2.2093,2.2115,2.2122,2.2129,2.2153,2.2151,2.2157,2.2169,2.218,2.2183,2.2186,2.2195,2.2198,2.2159,2.2159,2.2159,0,2.2017,2.2037,2.2038,2.2053,2.206,2.2056,2.2072,2.2079,2.2093,2.2098,2.2093,2.2119,2.2125,2.2147,2.2153,2.2158,2.2162,2.2157,2.2183,2.2185,2.2188,2.2196,2.22,2.216,2.216,2.216,2.216,0,2.205,2.2063,2.2075,2.2088,2.2097,2.2112,2.2115,2.2123,2.2122,2.2126,2.2144,2.2151,2.2164,2.2169,2.2169,2.219,2.2187,2.2182,2.2173,2.2192,2.22,2.2203,2.2161,2.216,2.216,2.216,0,0,2.2083,2.2095,2.2099,2.2105,2.2115,2.2126,2.214,2.2152,2.2159,2.2168,2.218,2.2198,2.2193,2.22,2.22,2.221,2.2229,2.2203,2.2204,2.2208,2.2253,2.2257,2.2261,2.2226,2.2227,2.2228,2.2252,0,2.2109,2.2135,2.2135,2.2159,2.2171,2.2166,2.2179,2.2186,2.2189,2.22,2.2202,2.2215,2.2207,2.2211,2.222,2.2224,2.2238,2.2222,2.2238,2.2239,2.2237,2.2265,2.2271,2.2294,2.2255,2.2256,2.2256,0,2.2144,2.2153,2.2178,2.2185,2.219,2.2202,2.2212,2.2222,2.223,2.2231,2.2239,2.2237,2.2251,2.224,2.2259,2.2249,2.2255,2.2257,2.2258,2.2261,2.225,2.227,2.2301,2.2305,2.2261,2.2261,2.226,0,2.2166,2.2185,2.2202,2.2207,2.2216,2.2223,2.2227,2.2234,2.2241,2.225,2.2255,2.2265,2.2271,2.2279,2.228,2.2272,2.2299,2.2288,2.2301,2.2301,2.2308,2.2308,2.2342,2.231,2.231,2.231,2.231,0,2.2196,2.2212,2.2212,2.2223,2.224,2.2239,2.2255,2.2258,2.2264,2.2275,2.2271,2.2281,2.2281,2.2291,2.2292,2.2307,2.231,2.2311,2.2312,2.2313,2.2313,2.2318,2.2317,2.2311,2.231,2.231,2.231,0,2.2226,2.2226,2.2245,2.225,2.2252,2.2264,2.2269,2.2279,2.228,2.2294,2.2297,2.23,2.2311,2.2312,2.2326,2.2326,2.2345,2.2343,2.2343,2.2343,2.2355,2.2355,2.2395,2.24,2.2364,2.2364,2.2364,0,2.2246,2.2257,2.2264,2.2271,2.2275,2.2286,2.2292,2.2291,2.2298,2.2306,2.2315,2.2326,2.2335,2.2354,2.2356,2.2366,2.2365,2.2378,2.2367,2.2367,2.2366,2.2366,2.2367,2.2381,2.2382,2.2382,2.2382,0,2.2281,2.228,2.229,2.23,2.2307,2.2315,2.2322,2.2327,2.2327,2.2334,2.2346,2.2353,2.2366,2.2377,2.2386,2.239,2.2386,2.2385,2.2389,2.2391,2.2391,2.2392,2.235,2.2385,2.2385,2.2385,2.2385,2.2384,2.2307,2.2317,2.2323,2.2333,2.2338,2.2344,2.2353,2.2355,2.2364,2.2375,2.2373,2.2386,2.2391,2.2403,2.2407,2.2417,2.2413,2.2418,2.2419,2.2421,2.2422,2.2388,2.2419,2.2419,2.2418,2.2418,2.2418,0,2.2344,2.2346,2.2356,2.2365,2.2373,2.2367,2.2374,2.2381,2.2392,2.2397,2.2406,2.2418,2.2428,2.2431,2.244,2.2447,2.2446,2.245,2.245,2.2451,2.2425,2.2422,2.2451,2.2451,2.2451,2.2451,2.2451,2.2451,2.2364,2.238,2.2379,2.2397,2.2399,2.2412,2.2416,2.2421,2.2425,2.2439,2.2447,2.2448,2.2452,2.2462,2.247,2.2471,2.2475,2.248,2.248,2.2456,2.2453,2.245,2.2447,2.2481,2.2481,2.2505,2.2505,2.2505]}]]